| time (UTC) | temp C | wind direction | speed KPH | gust KPH | rain 1hr cm | rain 24hr cm | rain mn cm | humidity % | barometer mb |
| 20260906212319 | 31 | 148 | 4.8 | 9.7 | 0.00 | 0.00 | 0.00 | 78 | 1011.9 |
| 20260906211816 | 31 | 127 | 1.6 | 9.7 | 0.00 | 0.00 | 0.00 | 77 | 1011.8 |
| 20260906211603 | 31 | 120 | 3.2 | 9.7 | 0.00 | 0.00 | 0.00 | 77 | 1011.8 |
| 20260906211332 | 31 | 155 | 1.6 | 11.3 | 0.00 | 0.00 | 0.00 | 77 | 1012.0 |
| 20260906210848 | 32 | 139 | 4.8 | 11.3 | 0.00 | 0.00 | 0.00 | 77 | 1012.1 |
| 20260906210324 | 32 | 122 | 4.8 | 9.7 | 0.00 | 0.00 | 0.00 | 77 | 1012.1 |
| 20260906210016 | 31 | 109 | 3.2 | 9.7 | 0.00 | 0.00 | 0.00 | 78 | 1012.0 |
| 20260906205822 | 32 | 114 | 3.2 | 9.7 | 0.00 | 0.00 | 0.00 | 78 | 1012.1 |
| 20260906205319 | 31 | 155 | 4.8 | 14.5 | 0.00 | 0.00 | 0.00 | 78 | 1012.0 |
| 20260906204817 | 31 | 136 | 6.4 | 14.5 | 0.00 | 0.00 | 0.00 | 77 | 1012.0 |
| 20260906204559 | 31 | 138 | 4.8 | 19.3 | 0.00 | 0.00 | 0.00 | 78 | 1011.9 |
| 20260906204501 | 31 | 129 | 3.2 | 19.3 | 0.00 | 0.00 | 0.00 | 78 | 1011.9 |
| 20260906204314 | 31 | 189 | 3.2 | 19.3 | 0.00 | 0.00 | 0.00 | 78 | 1012.1 |
| 20260906203828 | 32 | 117 | 11.3 | 17.7 | 0.00 | 0.00 | 0.00 | 76 | 1012.1 |
| 20260906203324 | 33 | 152 | 6.4 | 14.5 | 0.00 | 0.00 | 0.00 | 74 | 1012.2 |
| 20260906203055 | 33 | 116 | 6.4 | 14.5 | 0.00 | 0.00 | 0.00 | 72 | 1012.2 |
| 20260906202821 | 34 | 202 | 3.2 | 12.9 | 0.00 | 0.00 | 0.00 | 70 | 1012.3 |
| 20260906202318 | 34 | 58 | 0.0 | 0.0 | 0.00 | 0.00 | 0.00 | 71 | 1012.3 |
| 20260906201815 | 34 | 316 | 0.0 | 4.8 | 0.00 | 0.00 | 0.00 | 70 | 1012.3 |
| 20260906201527 | 34 | 316 | 1.6 | 4.8 | 0.00 | 0.00 | 0.00 | 71 | 1012.2 |
| 20260906201332 | 35 | 4 | 1.6 | 4.8 | 0.00 | 0.00 | 0.00 | 69 | 1012.4 |
| 20260906200830 | 35 | 127 | 0.0 | 1.6 | 0.00 | 0.00 | 0.00 | 70 | 1012.6 |
| 20260906200346 | 35 | 9 | 0.0 | 3.2 | 0.00 | 0.00 | 0.00 | 73 | 1012.6 |
| 20260906200050 | 34 | 163 | 0.0 | 4.8 | 0.00 | 0.00 | 0.00 | 73 | 1012.7 |
| 20260906195821 | 34 | 155 | 0.0 | 4.8 | 0.00 | 0.00 | 0.00 | 73 | 1012.7 |
| 20260906195339 | 34 | 356 | 1.6 | 4.8 | 0.00 | 0.00 | 0.00 | 72 | 1012.8 |
| 20260906194816 | 34 | 150 | 0.0 | 4.8 | 0.00 | 0.00 | 0.00 | 73 | 1012.9 |
| 20260906194517 | 33 | 126 | 0.0 | 4.8 | 0.00 | 0.00 | 0.00 | 71 | 1012.8 |
| 20260906194333 | 34 | 288 | 1.6 | 3.2 | 0.00 | 0.00 | 0.00 | 74 | 1012.9 |
| 20260906193830 | 33 | 255 | 0.0 | 3.2 | 0.00 | 0.00 | 0.00 | 74 | 1012.8 |
| 20260906193327 | 33 | 45 | 0.0 | 4.8 | 0.00 | 0.00 | 0.00 | 74 | 1012.8 |
| 20260906193101 | 33 | 50 | 0.0 | 6.4 | 0.00 | 0.00 | 0.00 | 72 | 1012.7 |
| 20260906192825 | 34 | 326 | 0.0 | 6.4 | 0.00 | 0.00 | 0.00 | 73 | 1012.9 |
| 20260906192322 | 34 | 356 | 1.6 | 6.4 | 0.00 | 0.00 | 0.00 | 72 | 1013.0 |
| 20260906191819 | 33 | 30 | 1.6 | 6.4 | 0.00 | 0.00 | 0.00 | 73 | 1012.8 |
| 20260906191539 | 33 | 30 | 0.0 | 6.4 | 0.00 | 0.00 | 0.00 | 71 | 1012.7 |
| 20260906191317 | 34 | 16 | 3.2 | 6.4 | 0.00 | 0.00 | 0.00 | 71 | 1012.9 |
| 20260906190832 | 34 | 5 | 1.6 | 4.8 | 0.00 | 0.00 | 0.00 | 72 | 1012.9 |
| 20260906190351 | 34 | 349 | 0.0 | 3.2 | 0.00 | 0.00 | 0.00 | 72 | 1012.9 |
| 20260906190053 | 33 | 12 | 0.0 | 8.0 | 0.00 | 0.00 | 0.00 | 75 | 1012.9 |
| 20260906185828 | 34 | 10 | 1.6 | 8.0 | 0.00 | 0.00 | 0.00 | 72 | 1013.0 |
| 20260906185325 | 34 | 120 | 0.0 | 4.8 | 0.00 | 0.00 | 0.00 | 73 | 1013.1 |
| 20260906184822 | 34 | 9 | 1.6 | 8.0 | 0.00 | 0.00 | 0.00 | 74 | 1013.2 |
| 20260906184544 | 33 | 23 | 0.0 | 8.0 | 0.00 | 0.00 | 0.00 | 73 | 1013.1 |
| 20260906184320 | 34 | 322 | 1.6 | 8.0 | 0.00 | 0.00 | 0.00 | 73 | 1013.3 |
| 20260906183817 | 34 | 21 | 3.2 | 6.4 | 0.00 | 0.00 | 0.00 | 71 | 1013.4 |
| 20260906183332 | 34 | 65 | 0.0 | 4.8 | 0.00 | 0.00 | 0.00 | 75 | 1013.6 |
| 20260906183026 | 33 | 13 | 0.0 | 0.0 | 0.00 | 0.00 | 0.00 | 74 | 1013.5 |
| 20260906182827 | 33 | 301 | 0.0 | 0.0 | 0.00 | 0.00 | 0.00 | 75 | 1013.7 |
| 20260906182324 | 34 | 274 | 0.0 | 0.0 | 0.00 | 0.00 | 0.00 | 74 | 1013.7 |
| 20260906181842 | 33 | 290 | 0.0 | 0.0 | 0.00 | 0.00 | 0.00 | 75 | 1013.8 |
| 20260906181605 | 33 | 290 | 0.0 | 0.0 | 0.00 | 0.00 | 0.00 | 74 | 1013.6 |
| 20260906181319 | 33 | 131 | 0.0 | 0.0 | 0.00 | 0.00 | 0.00 | 76 | 1013.8 |
| 20260906180837 | 33 | 48 | 0.0 | 4.8 | 0.00 | 0.00 | 0.00 | 75 | 1013.9 |
| 20260906180333 | 33 | 31 | 0.0 | 4.8 | 0.00 | 0.00 | 0.00 | 76 | 1013.9 |
| 20260906180018 | 32 | 28 | 0.0 | 3.2 | 0.00 | 0.00 | 0.00 | 75 | 1013.7 |
| 20260906175830 | 33 | 275 | 0.0 | 6.4 | 0.00 | 0.00 | 0.00 | 76 | 1013.9 |
| 20260906175329 | 33 | 12 | 0.0 | 9.7 | 0.00 | 0.00 | 0.00 | 75 | 1013.9 |
| 20260906174826 | 33 | 302 | 1.6 | 9.7 | 0.00 | 0.00 | 0.00 | 74 | 1013.8 |
| 20260906174558 | 33 | 336 | 1.6 | 4.8 | 0.00 | 0.00 | 0.00 | 73 | 1013.7 |
| 20260906174321 | 33 | 153 | 0.0 | 3.2 | 0.00 | 0.00 | 0.00 | 77 | 1014.0 |
| 20260906173819 | 33 | 155 | 0.0 | 3.2 | 0.00 | 0.00 | 0.00 | 75 | 1014.0 |
| 20260906173317 | 33 | 282 | 1.6 | 3.2 | 0.00 | 0.00 | 0.00 | 76 | 1013.9 |
| 20260906173045 | 33 | 277 | 0.0 | 3.2 | 0.00 | 0.00 | 0.00 | 76 | 1013.9 |
| 20260906172815 | 33 | 104 | 0.0 | 1.6 | 0.00 | 0.00 | 0.00 | 76 | 1013.9 |
| 20260906172333 | 33 | 57 | 0.0 | 3.2 | 0.00 | 0.00 | 0.00 | 74 | 1014.1 |
| 20260906171830 | 33 | 36 | 1.6 | 3.2 | 0.00 | 0.00 | 0.00 | 75 | 1014.1 |
| 20260906171531 | 33 | 53 | 0.0 | 3.2 | 0.00 | 0.00 | 0.00 | 76 | 1013.9 |
| 20260906171328 | 33 | 312 | 0.0 | 3.2 | 0.00 | 0.00 | 0.00 | 77 | 1014.0 |
| 20260906170824 | 33 | 139 | 1.6 | 6.4 | 0.00 | 0.00 | 0.00 | 77 | 1014.1 |
| 20260906170322 | 33 | 105 | 0.0 | 6.4 | 0.00 | 0.00 | 0.00 | 77 | 1014.0 |
| 20260906170017 | 32 | 41 | 1.6 | 4.8 | 0.00 | 0.00 | 0.00 | 76 | 1014.0 |
| 20260906165835 | 33 | 297 | 1.6 | 4.8 | 0.00 | 0.00 | 0.00 | 76 | 1014.1 |
| 20260906165353 | 33 | 11 | 0.0 | 6.4 | 0.00 | 0.00 | 0.00 | 78 | 1014.0 |
| 20260906164829 | 32 | 28 | 1.6 | 6.4 | 0.00 | 0.00 | 0.00 | 78 | 1013.9 |
| 20260906164540 | 32 | 108 | 0.0 | 4.8 | 0.00 | 0.00 | 0.00 | 78 | 1013.9 |
| 20260906164345 | 32 | 307 | 0.0 | 4.8 | 0.00 | 0.00 | 0.00 | 77 | 1014.0 |
| 20260906163842 | 32 | 40 | 1.6 | 8.0 | 0.00 | 0.00 | 0.00 | 79 | 1014.1 |
| 20260906163318 | 32 | 285 | 1.6 | 8.0 | 0.00 | 0.00 | 0.00 | 79 | 1014.2 |
| 20260906163041 | 32 | 310 | 0.0 | 4.8 | 0.00 | 0.00 | 0.00 | 79 | 1014.1 |
| 20260906162816 | 32 | 17 | 1.6 | 6.4 | 0.00 | 0.00 | 0.00 | 79 | 1014.3 |
| 20260906162331 | 32 | 88 | 0.0 | 8.0 | 0.00 | 0.00 | 0.00 | 79 | 1014.2 |
| 20260906161828 | 32 | 346 | 0.0 | 6.4 | 0.00 | 0.00 | 0.00 | 79 | 1014.3 |
| 20260906161521 | 31 | 25 | 1.6 | 6.4 | 0.00 | 0.00 | 0.00 | 79 | 1014.4 |
| 20260906161325 | 32 | 3 | 1.6 | 6.4 | 0.00 | 0.00 | 0.00 | 79 | 1014.5 |
| 20260906160823 | 32 | 35 | 1.6 | 6.4 | 0.00 | 0.00 | 0.00 | 80 | 1014.5 |
| 20260906160321 | 31 | 122 | 0.0 | 4.8 | 0.00 | 0.00 | 0.00 | 81 | 1014.6 |
| 20260906160006 | 31 | 305 | 1.6 | 8.0 | 0.00 | 0.00 | 0.00 | 80 | 1014.5 |
| 20260906155819 | 31 | 32 | 1.6 | 8.0 | 0.00 | 0.00 | 0.00 | 80 | 1014.6 |
| 20260906155317 | 31 | 343 | 4.8 | 8.0 | 0.00 | 0.00 | 0.00 | 79 | 1014.6 |
| 20260906154834 | 31 | 38 | 1.6 | 6.4 | 0.00 | 0.00 | 0.00 | 80 | 1014.7 |
| 20260906154554 | 31 | 305 | 0.0 | 4.8 | 0.00 | 0.00 | 0.00 | 80 | 1014.6 |
| 20260906154331 | 31 | 268 | 0.0 | 4.8 | 0.00 | 0.00 | 0.00 | 80 | 1014.8 |
| 20260906153828 | 31 | 295 | 0.0 | 6.4 | 0.00 | 0.00 | 0.00 | 80 | 1014.9 |
| 20260906153325 | 31 | 287 | 1.6 | 8.0 | 0.00 | 0.00 | 0.00 | 80 | 1014.9 |
| 20260906153044 | 31 | 49 | 1.6 | 8.0 | 0.00 | 0.00 | 0.00 | 80 | 1014.8 |
| 20260906152823 | 31 | 6 | 3.2 | 8.0 | 0.00 | 0.00 | 0.00 | 80 | 1015.0 |
| 20260906151817 | 31 | 56 | 0.0 | 8.0 | 0.00 | 0.00 | 0.00 | 82 | 1015.0 |
| 20260906151531 | 31 | 25 | 3.2 | 8.0 | 0.00 | 0.00 | 0.00 | 81 | 1014.9 |
| 20260906151315 | 31 | 105 | 1.6 | 8.0 | 0.00 | 0.00 | 0.00 | 82 | 1015.1 |
| 20260906150833 | 31 | 46 | 3.2 | 6.4 | 0.00 | 0.00 | 0.00 | 81 | 1015.2 |
| 20260906150330 | 31 | 316 | 1.6 | 6.4 | 0.00 | 0.00 | 0.00 | 82 | 1015.0 |
| 20260906150018 | 31 | 27 | 3.2 | 9.7 | 0.00 | 0.00 | 0.00 | 81 | 1015.1 |
| 20260906145829 | 31 | 337 | 3.2 | 9.7 | 0.00 | 0.00 | 0.00 | 81 | 1015.2 |
| 20260906145345 | 31 | 245 | 1.6 | 9.7 | 0.00 | 0.00 | 0.00 | 81 | 1015.1 |
| 20260906144840 | 31 | 278 | 0.0 | 3.2 | 0.00 | 0.00 | 0.00 | 82 | 1015.2 |
| 20260906144517 | 31 | 332 | 0.0 | 3.2 | 0.00 | 0.00 | 0.00 | 82 | 1015.1 |
| 20260906144316 | 31 | 4 | 0.0 | 3.2 | 0.00 | 0.00 | 0.00 | 82 | 1015.2 |
| 20260906143831 | 31 | 266 | 0.0 | 4.8 | 0.00 | 0.00 | 0.00 | 83 | 1015.1 |
| 20260906143329 | 30 | 282 | 1.6 | 4.8 | 0.00 | 0.00 | 0.00 | 82 | 1015.1 |
| 20260906143110 | 30 | 20 | 0.0 | 4.8 | 0.00 | 0.00 | 0.00 | 82 | 1015.1 |
| 20260906142826 | 30 | 302 | 1.6 | 3.2 | 0.00 | 0.00 | 0.00 | 82 | 1015.1 |
| 20260906142324 | 30 | 8 | 1.6 | 4.8 | 0.00 | 0.00 | 0.00 | 83 | 1015.1 |
| 20260906141820 | 30 | 30 | 1.6 | 4.8 | 0.00 | 0.00 | 0.00 | 82 | 1015.1 |
| 20260906141555 | 30 | 274 | 0.0 | 0.0 | 0.00 | 0.00 | 0.00 | 83 | 1015.1 |
| 20260906141337 | 30 | 274 | 0.0 | 0.0 | 0.00 | 0.00 | 0.00 | 83 | 1015.0 |
| 20260906140832 | 30 | 265 | 0.0 | 0.0 | 0.00 | 0.00 | 0.00 | 84 | 1015.1 |
| 20260906140348 | 30 | 8 | 0.0 | 0.0 | 0.00 | 0.00 | 0.00 | 85 | 1015.0 |
| 20260906140048 | 29 | 17 | 0.0 | 1.6 | 0.00 | 0.00 | 0.00 | 85 | 1015.0 |
| 20260906135825 | 29 | 17 | 0.0 | 1.6 | 0.00 | 0.00 | 0.00 | 85 | 1015.0 |
| 20260906135323 | 28 | 39 | 0.0 | 1.6 | 0.00 | 0.00 | 0.00 | 85 | 1015.0 |
| 20260906134821 | 28 | 300 | 0.0 | 3.2 | 0.00 | 0.00 | 0.00 | 86 | 1015.0 |
| 20260906134536 | 28 | 300 | 0.0 | 3.2 | 0.00 | 0.00 | 0.00 | 86 | 1014.9 |
| 20260906133830 | 28 | 7 | 0.0 | 1.6 | 0.00 | 0.00 | 0.00 | 85 | 1015.0 |
| 20260906133347 | 28 | 327 | 0.0 | 0.0 | 0.00 | 0.00 | 0.00 | 85 | 1015.0 |
| 20260906133010 | 28 | 327 | 0.0 | 1.6 | 0.00 | 0.00 | 0.00 | 86 | 1015.0 |
| 20260906132822 | 28 | 328 | 0.0 | 1.6 | 0.00 | 0.00 | 0.00 | 85 | 1015.0 |
| 20260906132339 | 28 | 288 | 0.0 | 1.6 | 0.00 | 0.00 | 0.00 | 85 | 1014.9 |
| 20260906131856 | 28 | 288 | 0.0 | 1.6 | 0.00 | 0.00 | 0.00 | 86 | 1015.0 |
| 20260906131534 | 28 | 288 | 0.0 | 1.6 | 0.00 | 0.00 | 0.00 | 85 | 1014.8 |
| 20260906131354 | 28 | 20 | 0.0 | 0.0 | 0.00 | 0.00 | 0.00 | 85 | 1014.9 |
| 20260906130830 | 28 | 20 | 0.0 | 0.0 | 0.00 | 0.00 | 0.00 | 85 | 1014.8 |
| 20260906130326 | 28 | 20 | 0.0 | 1.6 | 0.00 | 0.00 | 0.00 | 85 | 1014.8 |
| 20260906130027 | 28 | 20 | 0.0 | 1.6 | 0.00 | 0.00 | 0.00 | 85 | 1014.7 |
| 20260906125824 | 28 | 20 | 0.0 | 1.6 | 0.00 | 0.00 | 0.00 | 84 | 1014.7 |
| 20260906125319 | 28 | 2 | 0.0 | 4.8 | 0.00 | 0.00 | 0.00 | 84 | 1014.8 |
| 20260906124816 | 28 | 79 | 0.0 | 0.0 | 0.00 | 0.00 | 0.00 | 85 | 1014.7 |
| 20260906124516 | 28 | 86 | 0.0 | 0.0 | 0.00 | 0.00 | 0.00 | 86 | 1014.7 |
| 20260906124334 | 28 | 86 | 0.0 | 0.0 | 0.00 | 0.00 | 0.00 | 87 | 1014.7 |
| 20260906123830 | 28 | 86 | 0.0 | 0.0 | 0.00 | 0.00 | 0.00 | 88 | 1014.7 |
| 20260906123327 | 27 | 129 | 0.0 | 0.0 | 0.00 | 0.00 | 0.00 | 90 | 1014.7 |
| 20260906123100 | 27 | 129 | 0.0 | 0.0 | 0.00 | 0.00 | 0.00 | 90 | 1014.7 |
| 20260906123002 | 27 | 129 | 0.0 | 0.0 | 0.00 | 0.00 | 0.00 | 90 | 1014.6 |
| 20260906122823 | 27 | 129 | 0.0 | 0.0 | 0.00 | 0.00 | 0.00 | 90 | 1014.8 |
| 20260906122319 | 26 | 129 | 0.0 | 0.0 | 0.00 | 0.00 | 0.00 | 90 | 1014.7 |
| 20260906121827 | 26 | 129 | 0.0 | 0.0 | 0.00 | 0.00 | 0.00 | 90 | 1014.5 |
| 20260906121543 | 26 | 129 | 0.0 | 0.0 | 0.00 | 0.00 | 0.00 | 90 | 1014.4 |
| 20260906121325 | 26 | 129 | 0.0 | 1.6 | 0.00 | 0.00 | 0.00 | 91 | 1014.5 |
| 20260906120823 | 26 | 129 | 0.0 | 1.6 | 0.00 | 0.00 | 0.00 | 91 | 1014.4 |
| 20260906120320 | 27 | 129 | 0.0 | 0.0 | 0.00 | 0.00 | 0.00 | 93 | 1014.3 |
| 20260906120020 | 26 | 129 | 0.0 | 0.0 | 0.00 | 0.00 | 0.00 | 93 | 1014.2 |
| 20260906115836 | 26 | 129 | 0.0 | 0.0 | 0.00 | 0.00 | 0.00 | 93 | 1014.3 |
| 20260906115332 | 26 | 129 | 0.0 | 0.0 | 0.00 | 0.00 | 0.00 | 93 | 1014.2 |
| 20260906114827 | 26 | 129 | 0.0 | 0.0 | 0.00 | 0.00 | 0.00 | 94 | 1014.1 |
| 20260906114554 | 25 | 129 | 0.0 | 0.0 | 0.00 | 0.00 | 0.00 | 93 | 1014.0 |
| 20260906114324 | 25 | 129 | 0.0 | 0.0 | 0.00 | 0.00 | 0.00 | 94 | 1014.1 |
| 20260906113822 | 25 | 129 | 0.0 | 0.0 | 0.00 | 0.00 | 0.00 | 94 | 1014.0 |
| 20260906113339 | 25 | 129 | 0.0 | 0.0 | 0.00 | 0.00 | 0.00 | 94 | 1014.0 |
| 20260906113010 | 25 | 129 | 0.0 | 0.0 | 0.00 | 0.00 | 0.00 | 94 | 1013.9 |
| 20260906112829 | 25 | 129 | 0.0 | 0.0 | 0.00 | 0.00 | 0.00 | 94 | 1013.9 |
| 20260906112346 | 25 | 129 | 0.0 | 0.0 | 0.00 | 0.00 | 0.00 | 94 | 1013.8 |
| 20260906111821 | 25 | 129 | 0.0 | 0.0 | 0.00 | 0.00 | 0.00 | 94 | 1013.7 |
| 20260906111538 | 24 | 129 | 0.0 | 0.0 | 0.00 | 0.00 | 0.00 | 94 | 1013.5 |
| 20260906111318 | 25 | 129 | 0.0 | 0.0 | 0.00 | 0.00 | 0.00 | 94 | 1013.5 |
| 20260906110817 | 24 | 129 | 0.0 | 0.0 | 0.00 | 0.00 | 0.00 | 94 | 1013.5 |
| 20260906110316 | 24 | 129 | 0.0 | 0.0 | 0.00 | 0.00 | 0.00 | 94 | 1013.5 |
| 20260906110016 | 24 | 129 | 0.0 | 0.0 | 0.00 | 0.00 | 0.00 | 94 | 1013.4 |
| 20260906105831 | 24 | 129 | 0.0 | 0.0 | 0.00 | 0.00 | 0.00 | 94 | 1013.4 |
| 20260906105328 | 24 | 129 | 0.0 | 0.0 | 0.00 | 0.00 | 0.00 | 94 | 1013.2 |
| 20260906104827 | 24 | 129 | 0.0 | 0.0 | 0.00 | 0.00 | 0.00 | 94 | 1013.3 |
| 20260906104604 | 24 | 129 | 0.0 | 0.0 | 0.00 | 0.00 | 0.00 | 94 | 1013.1 |
| 20260906104502 | 24 | 129 | 0.0 | 0.0 | 0.00 | 0.00 | 0.00 | 94 | 1013.1 |
| 20260906104323 | 24 | 129 | 0.0 | 0.0 | 0.00 | 0.00 | 0.00 | 94 | 1013.1 |
| 20260906103820 | 24 | 129 | 0.0 | 0.0 | 0.00 | 0.00 | 0.00 | 94 | 1012.9 |
| 20260906103338 | 24 | 129 | 0.0 | 0.0 | 0.00 | 0.00 | 0.00 | 94 | 1012.8 |
| 20260906103020 | 24 | 129 | 0.0 | 0.0 | 0.00 | 0.00 | 0.00 | 94 | 1012.6 |
| 20260906102815 | 24 | 129 | 0.0 | 0.0 | 0.00 | 0.00 | 0.00 | 94 | 1012.7 |
| 20260906102334 | 24 | 129 | 0.0 | 0.0 | 0.00 | 0.00 | 0.00 | 94 | 1012.8 |
| 20260906101830 | 24 | 129 | 0.0 | 0.0 | 0.00 | 0.00 | 0.00 | 94 | 1012.7 |
| 20260906101506 | 24 | 129 | 0.0 | 0.0 | 0.00 | 0.00 | 0.00 | 94 | 1012.7 |
| 20260906101347 | 24 | 129 | 0.0 | 0.0 | 0.00 | 0.00 | 0.00 | 94 | 1012.7 |
| 20260906100823 | 24 | 129 | 0.0 | 0.0 | 0.00 | 0.00 | 0.00 | 93 | 1012.6 |
| 20260906100321 | 24 | 129 | 0.0 | 0.0 | 0.00 | 0.00 | 0.00 | 93 | 1012.5 |
| 20260906100029 | 23 | 129 | 0.0 | 0.0 | 0.00 | 0.00 | 0.00 | 93 | 1012.3 |
| 20260906095818 | 24 | 129 | 0.0 | 0.0 | 0.00 | 0.00 | 0.00 | 93 | 1012.2 |
| 20260906095337 | 24 | 129 | 0.0 | 0.0 | 0.00 | 0.00 | 0.00 | 93 | 1012.2 |
| 20260906094853 | 24 | 129 | 0.0 | 0.0 | 0.00 | 0.00 | 0.00 | 93 | 1012.3 |
| 20260906094601 | 23 | 129 | 0.0 | 0.0 | 0.00 | 0.00 | 0.00 | 93 | 1012.1 |
| 20260906094328 | 24 | 129 | 0.0 | 0.0 | 0.00 | 0.00 | 0.00 | 93 | 1012.2 |
| 20260906093826 | 24 | 129 | 0.0 | 0.0 | 0.00 | 0.00 | 0.00 | 93 | 1012.2 |
| 20260906093324 | 24 | 129 | 0.0 | 0.0 | 0.00 | 0.00 | 0.00 | 93 | 1012.3 |
| 20260906093051 | 23 | 129 | 0.0 | 0.0 | 0.00 | 0.00 | 0.00 | 93 | 1012.1 |
| 20260906092822 | 24 | 129 | 0.0 | 0.0 | 0.00 | 0.00 | 0.00 | 93 | 1012.2 |
| 20260906092340 | 24 | 129 | 0.0 | 0.0 | 0.00 | 0.00 | 0.00 | 93 | 1012.3 |
| 20260906091856 | 24 | 129 | 0.0 | 0.0 | 0.00 | 0.00 | 0.00 | 93 | 1012.3 |
| 20260906091559 | 23 | 129 | 0.0 | 0.0 | 0.00 | 0.00 | 0.00 | 93 | 1012.1 |
| 20260906091354 | 24 | 129 | 0.0 | 0.0 | 0.00 | 0.00 | 0.00 | 93 | 1012.2 |
| 20260906090830 | 24 | 129 | 0.0 | 0.0 | 0.00 | 0.00 | 0.00 | 93 | 1012.4 |
| 20260906090327 | 24 | 129 | 0.0 | 0.0 | 0.00 | 0.00 | 0.00 | 93 | 1012.4 |
| 20260906090024 | 24 | 129 | 0.0 | 0.0 | 0.00 | 0.00 | 0.00 | 93 | 1012.2 |
| 20260906085824 | 24 | 129 | 0.0 | 0.0 | 0.00 | 0.00 | 0.00 | 93 | 1012.4 |
| 20260906085322 | 24 | 129 | 0.0 | 0.0 | 0.00 | 0.00 | 0.00 | 93 | 1012.4 |
| 20260906084840 | 24 | 129 | 0.0 | 0.0 | 0.00 | 0.00 | 0.00 | 93 | 1012.4 |
| 20260906084556 | 23 | 129 | 0.0 | 0.0 | 0.00 | 0.00 | 0.00 | 92 | 1012.4 |
| 20260906084354 | 24 | 129 | 0.0 | 0.0 | 0.00 | 0.00 | 0.00 | 92 | 1012.6 |
| 20260906083824 | 24 | 129 | 0.0 | 0.0 | 0.00 | 0.00 | 0.00 | 92 | 1012.7 |
| 20260906083340 | 24 | 129 | 0.0 | 0.0 | 0.00 | 0.00 | 0.00 | 92 | 1012.8 |
| 20260906083047 | 24 | 129 | 0.0 | 0.0 | 0.00 | 0.00 | 0.00 | 93 | 1012.7 |
| 20260906082331 | 24 | 129 | 0.0 | 0.0 | 0.00 | 0.00 | 0.00 | 93 | 1012.7 |
| 20260906081828 | 24 | 129 | 0.0 | 0.0 | 0.00 | 0.00 | 0.00 | 93 | 1012.6 |
| 20260906081538 | 24 | 129 | 0.0 | 0.0 | 0.00 | 0.00 | 0.00 | 93 | 1012.5 |
| 20260906081345 | 24 | 129 | 0.0 | 0.0 | 0.00 | 0.00 | 0.00 | 92 | 1012.6 |
| 20260906080822 | 24 | 129 | 0.0 | 0.0 | 0.00 | 0.00 | 0.00 | 92 | 1012.6 |
| 20260906080318 | 24 | 129 | 0.0 | 1.6 | 0.00 | 0.00 | 0.00 | 93 | 1012.6 |
| 20260906080009 | 24 | 129 | 0.0 | 1.6 | 0.00 | 0.00 | 0.00 | 93 | 1012.5 |
| 20260906075815 | 24 | 129 | 0.0 | 1.6 | 0.00 | 0.00 | 0.00 | 92 | 1012.7 |
| 20260906075332 | 24 | 129 | 0.0 | 1.6 | 0.00 | 0.00 | 0.00 | 92 | 1012.7 |
| 20260906074830 | 24 | 129 | 0.0 | 1.6 | 0.00 | 0.00 | 0.00 | 93 | 1012.5 |
| 20260906074554 | 24 | 129 | 0.0 | 1.6 | 0.00 | 0.00 | 0.00 | 93 | 1012.4 |
| 20260906074328 | 24 | 129 | 0.0 | 1.6 | 0.00 | 0.00 | 0.00 | 93 | 1012.5 |
| 20260906073824 | 24 | 129 | 0.0 | 1.6 | 0.00 | 0.00 | 0.00 | 93 | 1012.5 |
| 20260906073323 | 24 | 129 | 0.0 | 0.0 | 0.00 | 0.00 | 0.00 | 92 | 1012.5 |
| 20260906073038 | 24 | 129 | 0.0 | 0.0 | 0.00 | 0.00 | 0.00 | 92 | 1012.4 |
| 20260906072840 | 24 | 129 | 0.0 | 0.0 | 0.00 | 0.00 | 0.00 | 92 | 1012.4 |
| 20260906072337 | 24 | 129 | 0.0 | 0.0 | 0.00 | 0.00 | 0.00 | 92 | 1012.6 |
| 20260906071852 | 24 | 129 | 0.0 | 0.0 | 0.00 | 0.00 | 0.00 | 92 | 1012.6 |
| 20260906071537 | 24 | 129 | 0.0 | 0.0 | 0.00 | 0.00 | 0.00 | 92 | 1012.5 |
| 20260906071327 | 24 | 129 | 0.0 | 0.0 | 0.00 | 0.00 | 0.00 | 92 | 1012.6 |
| 20260906070826 | 24 | 129 | 0.0 | 0.0 | 0.00 | 0.00 | 0.00 | 92 | 1012.5 |
| 20260906070322 | 24 | 129 | 0.0 | 0.0 | 0.00 | 0.00 | 0.00 | 92 | 1012.6 |
| 20260906070021 | 24 | 129 | 0.0 | 0.0 | 0.00 | 0.03 | 0.00 | 92 | 1012.6 |
| 20260906065818 | 25 | 129 | 0.0 | 0.0 | 0.00 | 0.03 | 0.00 | 92 | 1012.7 |
| 20260906065316 | 25 | 129 | 0.0 | 1.6 | 0.00 | 0.03 | 0.00 | 92 | 1012.7 |
| 20260906064831 | 25 | 129 | 0.0 | 1.6 | 0.00 | 0.03 | 0.00 | 92 | 1012.8 |
| 20260906064547 | 24 | 129 | 0.0 | 1.6 | 0.00 | 0.03 | 0.00 | 92 | 1012.8 |
| 20260906064328 | 25 | 129 | 0.0 | 1.6 | 0.00 | 0.03 | 0.00 | 92 | 1012.9 |
| 20260906063823 | 25 | 350 | 0.0 | 0.0 | 0.00 | 0.03 | 0.00 | 91 | 1013.1 |
| 20260906063320 | 25 | 350 | 0.0 | 0.0 | 0.00 | 0.03 | 0.00 | 91 | 1013.3 |
| 20260906063035 | 24 | 350 | 0.0 | 0.0 | 0.00 | 0.03 | 0.00 | 91 | 1013.2 |
| 20260906062815 | 25 | 350 | 0.0 | 0.0 | 0.00 | 0.03 | 0.00 | 91 | 1013.3 |
| 20260906062332 | 25 | 350 | 0.0 | 0.0 | 0.00 | 0.03 | 0.00 | 91 | 1013.2 |
| 20260906061829 | 25 | 350 | 0.0 | 1.6 | 0.00 | 0.03 | 0.00 | 91 | 1013.2 |
| 20260906061516 | 24 | 350 | 0.0 | 4.8 | 0.00 | 0.03 | 0.00 | 91 | 1013.2 |
| 20260906061325 | 25 | 350 | 0.0 | 4.8 | 0.00 | 0.03 | 0.00 | 91 | 1013.3 |
| 20260906060819 | 25 | 350 | 0.0 | 4.8 | 0.00 | 0.03 | 0.00 | 91 | 1013.7 |
| 20260906060317 | 25 | 9 | 0.0 | 3.2 | 0.00 | 0.03 | 0.00 | 91 | 1013.7 |
| 20260906060003 | 24 | 51 | 0.0 | 0.0 | 0.00 | 0.03 | 0.00 | 91 | 1013.7 |
| 20260906055829 | 25 | 124 | 0.0 | 0.0 | 0.00 | 0.03 | 0.00 | 91 | 1013.9 |
| 20260906055326 | 25 | 124 | 0.0 | 0.0 | 0.00 | 0.03 | 0.00 | 91 | 1013.8 |
| 20260906054824 | 25 | 124 | 0.0 | 0.0 | 0.00 | 0.03 | 0.00 | 91 | 1013.8 |
| 20260906054551 | 25 | 124 | 0.0 | 1.6 | 0.00 | 0.03 | 0.00 | 91 | 1013.7 |
| 20260906054321 | 25 | 124 | 0.0 | 1.6 | 0.00 | 0.03 | 0.00 | 91 | 1013.9 |
| 20260906053839 | 25 | 124 | 1.6 | 3.2 | 0.00 | 0.03 | 0.00 | 91 | 1014.0 |
| 20260906053334 | 25 | 120 | 0.0 | 3.2 | 0.00 | 0.03 | 0.00 | 91 | 1014.1 |
| 20260906053015 | 24 | 69 | 0.0 | 3.2 | 0.00 | 0.03 | 0.00 | 91 | 1014.1 |
| 20260906052852 | 25 | 20 | 1.6 | 1.6 | 0.00 | 0.03 | 0.00 | 91 | 1014.1 |
| 20260906052327 | 25 | 360 | 0.0 | 1.6 | 0.00 | 0.03 | 0.00 | 91 | 1014.2 |
| 20260906051824 | 25 | 360 | 0.0 | 3.2 | 0.00 | 0.03 | 0.00 | 90 | 1014.4 |
| 20260906051550 | 24 | 360 | 0.0 | 6.4 | 0.00 | 0.03 | 0.00 | 90 | 1014.3 |
| 20260906051322 | 25 | 360 | 1.6 | 6.4 | 0.00 | 0.03 | 0.00 | 90 | 1014.6 |
| 20260906050821 | 25 | 11 | 1.6 | 6.4 | 0.00 | 0.03 | 0.00 | 90 | 1014.7 |
| 20260906050320 | 25 | 341 | 3.2 | 6.4 | 0.00 | 0.03 | 0.00 | 90 | 1014.7 |
| 20260906050027 | 24 | 345 | 0.0 | 4.8 | 0.00 | 0.03 | 0.00 | 90 | 1014.6 |
| 20260906045839 | 25 | 6 | 1.6 | 4.8 | 0.00 | 0.03 | 0.00 | 90 | 1014.7 |
| 20260906045334 | 25 | 349 | 1.6 | 6.4 | 0.00 | 0.03 | 0.00 | 90 | 1014.8 |
| 20260906044831 | 25 | 5 | 0.0 | 3.2 | 0.00 | 0.03 | 0.00 | 90 | 1014.8 |
| 20260906044554 | 24 | 153 | 0.0 | 1.6 | 0.00 | 0.03 | 0.00 | 90 | 1014.7 |
| 20260906044329 | 25 | 153 | 0.0 | 1.6 | 0.00 | 0.03 | 0.00 | 90 | 1014.7 |
| 20260906043827 | 25 | 153 | 0.0 | 0.0 | 0.00 | 0.03 | 0.00 | 90 | 1014.7 |
| 20260906043322 | 25 | 154 | 0.0 | 0.0 | 0.00 | 0.03 | 0.00 | 90 | 1014.6 |
| 20260906043032 | 24 | 153 | 0.0 | 0.0 | 0.00 | 0.03 | 0.00 | 90 | 1014.5 |
| 20260906042837 | 25 | 153 | 0.0 | 0.0 | 0.00 | 0.03 | 0.00 | 90 | 1014.5 |
| 20260906042353 | 25 | 153 | 0.0 | 0.0 | 0.00 | 0.03 | 0.00 | 90 | 1014.3 |
| 20260906041831 | 25 | 153 | 0.0 | 0.0 | 0.00 | 0.03 | 0.00 | 90 | 1014.5 |
| 20260906041551 | 24 | 153 | 0.0 | 0.0 | 0.00 | 0.03 | 0.00 | 90 | 1014.4 |
| 20260906041346 | 25 | 153 | 0.0 | 0.0 | 0.00 | 0.03 | 0.00 | 90 | 1014.6 |
| 20260906040822 | 25 | 154 | 0.0 | 0.0 | 0.00 | 0.03 | 0.00 | 90 | 1014.6 |
| 20260906040339 | 25 | 154 | 0.0 | 0.0 | 0.00 | 0.03 | 0.00 | 90 | 1014.6 |
| 20260906040023 | 24 | 154 | 0.0 | 0.0 | 0.00 | 0.03 | 0.03 | 90 | 1014.5 |
| 20260906035849 | 25 | 154 | 0.0 | 0.0 | 0.00 | 0.03 | 0.03 | 90 | 1014.6 |
| 20260906035346 | 25 | 164 | 0.0 | 0.0 | 0.00 | 0.03 | 0.03 | 90 | 1014.6 |
| 20260906034821 | 25 | 164 | 0.0 | 0.0 | 0.00 | 0.03 | 0.03 | 90 | 1014.5 |
| 20260906034508 | 24 | 164 | 0.0 | 0.0 | 0.00 | 0.03 | 0.03 | 89 | 1014.3 |
| 20260906034318 | 25 | 164 | 0.0 | 0.0 | 0.00 | 0.03 | 0.03 | 89 | 1014.3 |
| 20260906033834 | 25 | 164 | 0.0 | 1.6 | 0.00 | 0.03 | 0.03 | 90 | 1014.3 |
| 20260906033330 | 25 | 164 | 0.0 | 1.6 | 0.00 | 0.03 | 0.03 | 90 | 1014.2 |
| 20260906033050 | 25 | 164 | 0.0 | 1.6 | 0.00 | 0.03 | 0.03 | 90 | 1014.0 |
| 20260906032828 | 25 | 164 | 0.0 | 1.6 | 0.00 | 0.03 | 0.03 | 90 | 1014.1 |
| 20260906032326 | 25 | 160 | 0.0 | 1.6 | 0.00 | 0.03 | 0.03 | 90 | 1014.1 |
| 20260906031824 | 25 | 162 | 0.0 | 3.2 | 0.00 | 0.03 | 0.03 | 90 | 1014.1 |
| 20260906031541 | 25 | 181 | 0.0 | 3.2 | 0.00 | 0.03 | 0.03 | 90 | 1014.1 |
| 20260906031323 | 25 | 153 | 0.0 | 3.2 | 0.00 | 0.03 | 0.03 | 90 | 1014.1 |
| 20260906030821 | 25 | 150 | 0.0 | 3.2 | 0.00 | 0.03 | 0.03 | 90 | 1014.1 |
| 20260906030318 | 25 | 150 | 0.0 | 3.2 | 0.00 | 0.03 | 0.03 | 90 | 1014.3 |
| 20260906030020 | 25 | 150 | 0.0 | 4.8 | 0.00 | 0.03 | 0.03 | 90 | 1014.3 |
| 20260906025816 | 25 | 150 | 0.0 | 4.8 | 0.00 | 0.03 | 0.03 | 90 | 1014.5 |
| 20260906025314 | 25 | 150 | 1.6 | 4.8 | 0.00 | 0.03 | 0.03 | 90 | 1014.6 |
| 20260906024828 | 25 | 106 | 0.0 | 0.0 | 0.00 | 0.03 | 0.03 | 89 | 1014.6 |
| 20260906024526 | 25 | 107 | 0.0 | 0.0 | 0.00 | 0.03 | 0.03 | 89 | 1014.7 |
| 20260906024324 | 25 | 107 | 0.0 | 0.0 | 0.00 | 0.03 | 0.03 | 89 | 1014.9 |
| 20260906023820 | 25 | 356 | 0.0 | 0.0 | 0.00 | 0.03 | 0.03 | 89 | 1015.1 |
| 20260906023317 | 25 | 356 | 0.0 | 0.0 | 0.00 | 0.03 | 0.03 | 88 | 1015.2 |
| 20260906023052 | 25 | 356 | 0.0 | 0.0 | 0.00 | 0.03 | 0.03 | 88 | 1015.2 |
| 20260906022834 | 25 | 356 | 0.0 | 0.0 | 0.00 | 0.03 | 0.03 | 88 | 1015.4 |
| 20260906022351 | 25 | 356 | 0.0 | 0.0 | 0.00 | 0.03 | 0.03 | 88 | 1015.4 |
| 20260906021828 | 25 | 356 | 0.0 | 1.6 | 0.00 | 0.03 | 0.03 | 88 | 1015.5 |
| 20260906021517 | 25 | 356 | 0.0 | 1.6 | 0.00 | 0.03 | 0.03 | 88 | 1015.4 |
| 20260906021347 | 25 | 356 | 0.0 | 1.6 | 0.00 | 0.03 | 0.03 | 87 | 1015.5 |
| 20260906020823 | 25 | 359 | 0.0 | 4.8 | 0.00 | 0.03 | 0.03 | 88 | 1015.6 |
| 20260906020319 | 25 | 16 | 0.0 | 6.4 | 0.00 | 0.03 | 0.03 | 87 | 1015.7 |
| 20260906020041 | 25 | 356 | 0.0 | 6.4 | 0.00 | 0.03 | 0.03 | 87 | 1015.6 |
| 20260906015817 | 25 | 347 | 0.0 | 6.4 | 0.00 | 0.03 | 0.03 | 87 | 1015.7 |
| 20260906015334 | 25 | 353 | 1.6 | 4.8 | 0.00 | 0.03 | 0.03 | 87 | 1015.8 |
| 20260906014831 | 25 | 354 | 0.0 | 1.6 | 0.00 | 0.03 | 0.03 | 88 | 1015.8 |
| 20260906014538 | 24 | 354 | 0.0 | 3.2 | 0.00 | 0.03 | 0.03 | 88 | 1015.6 |
| 20260906014328 | 25 | 354 | 0.0 | 3.2 | 0.00 | 0.03 | 0.03 | 88 | 1015.9 |
| 20260906013826 | 25 | 299 | 0.0 | 1.6 | 0.00 | 0.03 | 0.03 | 88 | 1015.8 |
| 20260906013324 | 25 | 303 | 0.0 | 6.4 | 0.00 | 0.03 | 0.03 | 88 | 1015.7 |
| 20260906013049 | 24 | 295 | 0.0 | 6.4 | 0.00 | 0.03 | 0.03 | 88 | 1015.6 |
| 20260906012842 | 25 | 46 | 1.6 | 6.4 | 0.00 | 0.03 | 0.03 | 88 | 1015.5 |
| 20260906012319 | 25 | 5 | 0.0 | 4.8 | 0.00 | 0.03 | 0.03 | 88 | 1015.6 |
| 20260906011816 | 25 | 303 | 1.6 | 6.4 | 0.00 | 0.03 | 0.03 | 89 | 1015.7 |
| 20260906011505 | 24 | 21 | 0.0 | 6.4 | 0.00 | 0.03 | 0.03 | 89 | 1015.5 |
| 20260906011327 | 25 | 21 | 1.6 | 6.4 | 0.00 | 0.03 | 0.03 | 89 | 1015.5 |
| 20260906010826 | 25 | 12 | 0.0 | 1.6 | 0.00 | 0.03 | 0.03 | 89 | 1015.3 |
| 20260906010323 | 25 | 5 | 0.0 | 4.8 | 0.00 | 0.03 | 0.03 | 90 | 1015.2 |
| 20260906010058 | 24 | 5 | 0.0 | 4.8 | 0.00 | 0.03 | 0.03 | 90 | 1014.9 |
| 20260906010002 | 24 | 5 | 0.0 | 4.8 | 0.00 | 0.03 | 0.03 | 90 | 1015.0 |
| 20260906005840 | 25 | 5 | 0.0 | 4.8 | 0.00 | 0.03 | 0.03 | 90 | 1015.0 |
| 20260906005316 | 25 | 360 | 1.6 | 6.4 | 0.00 | 0.03 | 0.03 | 90 | 1015.0 |
| 20260906004834 | 25 | 359 | 3.2 | 6.4 | 0.00 | 0.03 | 0.03 | 91 | 1014.9 |
| 20260906004528 | 24 | 352 | 0.0 | 4.8 | 0.00 | 0.03 | 0.03 | 91 | 1014.7 |
| 20260906004333 | 25 | 352 | 0.0 | 4.8 | 0.00 | 0.03 | 0.03 | 91 | 1014.8 |
| 20260906003828 | 25 | 354 | 1.6 | 4.8 | 0.00 | 0.03 | 0.03 | 91 | 1014.8 |
| 20260906003325 | 25 | 348 | 1.6 | 4.8 | 0.00 | 0.03 | 0.03 | 91 | 1014.8 |
| 20260906003110 | 24 | 341 | 0.0 | 4.8 | 0.00 | 0.03 | 0.03 | 91 | 1014.7 |
| 20260906002824 | 25 | 2 | 1.6 | 4.8 | 0.00 | 0.03 | 0.03 | 91 | 1014.7 |
| 20260906002321 | 25 | 262 | 0.0 | 0.0 | 0.00 | 0.03 | 0.03 | 91 | 1014.5 |
| 20260906001818 | 25 | 262 | 0.0 | 0.0 | 0.00 | 0.03 | 0.03 | 91 | 1014.5 |
| 20260906001545 | 24 | 262 | 0.0 | 1.6 | 0.00 | 0.03 | 0.03 | 91 | 1014.4 |
| 20260906001338 | 25 | 262 | 0.0 | 1.6 | 0.00 | 0.03 | 0.03 | 91 | 1014.6 |
| 20260906000856 | 25 | 201 | 0.0 | 0.0 | 0.00 | 0.03 | 0.03 | 91 | 1014.6 |
| 20260906000348 | 25 | 200 | 0.0 | 0.0 | 0.00 | 0.03 | 0.03 | 91 | 1014.5 |
| 20260906000046 | 24 | 148 | 0.0 | 0.0 | 0.00 | 0.03 | 0.03 | 91 | 1014.2 |
| 20260905235823 | 25 | 148 | 0.0 | 1.6 | 0.00 | 0.03 | 0.03 | 91 | 1014.3 |
| 20260905235321 | 25 | 148 | 0.0 | 1.6 | 0.00 | 0.03 | 0.03 | 91 | 1014.4 |
| 20260905234819 | 25 | 136 | 0.0 | 1.6 | 0.00 | 0.03 | 0.03 | 91 | 1014.6 |
| 20260905234537 | 24 | 354 | 0.0 | 0.0 | 0.00 | 0.03 | 0.03 | 91 | 1014.4 |
| 20260905234317 | 25 | 354 | 0.0 | 0.0 | 0.00 | 0.03 | 0.03 | 91 | 1014.3 |
| 20260905233833 | 25 | 354 | 0.0 | 0.0 | 0.00 | 0.03 | 0.03 | 91 | 1014.4 |
| 20260905233328 | 25 | 354 | 0.0 | 0.0 | 0.00 | 0.03 | 0.03 | 91 | 1014.4 |
| 20260905233017 | 25 | 11 | 0.0 | 0.0 | 0.00 | 0.03 | 0.03 | 91 | 1014.4 |
| 20260905232826 | 25 | 27 | 0.0 | 0.0 | 0.00 | 0.03 | 0.03 | 91 | 1014.5 |
| 20260905232323 | 25 | 27 | 0.0 | 0.0 | 0.00 | 0.03 | 0.03 | 91 | 1014.4 |
| 20260905231821 | 25 | 27 | 0.0 | 0.0 | 0.00 | 0.03 | 0.03 | 91 | 1014.2 |
| 20260905231509 | 24 | 27 | 0.0 | 0.0 | 0.00 | 0.03 | 0.03 | 91 | 1014.1 |
| 20260905231319 | 25 | 27 | 0.0 | 0.0 | 0.00 | 0.03 | 0.03 | 91 | 1014.2 |
| 20260905230816 | 25 | 27 | 0.0 | 0.0 | 0.00 | 0.03 | 0.03 | 91 | 1014.2 |
| 20260905230334 | 25 | 27 | 0.0 | 0.0 | 0.00 | 0.03 | 0.03 | 90 | 1014.3 |
| 20260905230055 | 24 | 27 | 0.0 | 0.0 | 0.00 | 0.03 | 0.03 | 90 | 1014.3 |
| 20260905225831 | 25 | 27 | 0.0 | 0.0 | 0.00 | 0.08 | 0.03 | 90 | 1014.5 |
| 20260905225328 | 25 | 27 | 0.0 | 0.0 | 0.00 | 0.08 | 0.03 | 90 | 1014.6 |
| 20260905224825 | 25 | 27 | 0.0 | 1.6 | 0.00 | 0.08 | 0.03 | 90 | 1014.7 |
| 20260905224539 | 25 | 123 | 0.0 | 1.6 | 0.00 | 0.08 | 0.03 | 90 | 1014.7 |
| 20260905224342 | 25 | 117 | 0.0 | 1.6 | 0.00 | 0.08 | 0.03 | 90 | 1014.6 |
| 20260905223818 | 25 | 41 | 0.0 | 6.4 | 0.00 | 0.08 | 0.03 | 90 | 1014.5 |
| 20260905223336 | 25 | 147 | 0.0 | 6.4 | 0.00 | 0.08 | 0.03 | 89 | 1014.5 |
| 20260905223055 | 25 | 141 | 0.0 | 4.8 | 0.00 | 0.08 | 0.03 | 89 | 1014.5 |
| 20260905222855 | 25 | 169 | 0.0 | 4.8 | 0.00 | 0.08 | 0.03 | 89 | 1014.6 |
| 20260905222350 | 25 | 297 | 1.6 | 6.4 | 0.00 | 0.08 | 0.03 | 89 | 1014.6 |
| 20260905221827 | 26 | 209 | 1.6 | 6.4 | 0.00 | 0.08 | 0.03 | 89 | 1014.7 |
| 20260905221611 | 25 | 115 | 1.6 | 6.4 | 0.00 | 0.08 | 0.03 | 89 | 1014.6 |
| 20260905221325 | 26 | 300 | 1.6 | 6.4 | 0.00 | 0.08 | 0.03 | 89 | 1014.7 |
| 20260905220844 | 26 | 352 | 3.2 | 6.4 | 0.00 | 0.08 | 0.03 | 90 | 1015.0 |
| 20260905220319 | 27 | 302 | 0.0 | 0.0 | 0.00 | 0.08 | 0.03 | 90 | 1014.7 |
| 20260905220025 | 26 | 335 | 0.0 | 0.0 | 0.00 | 1.30 | 0.03 | 90 | 1014.5 |
| 20260905215816 | 27 | 117 | 0.0 | 0.0 | 0.00 | 1.30 | 0.03 | 90 | 1014.5 |
| 20260905215332 | 27 | 117 | 0.0 | 0.0 | 0.00 | 1.30 | 0.03 | 90 | 1014.5 |
| 20260905214827 | 27 | 117 | 0.0 | 0.0 | 0.00 | 1.30 | 0.03 | 89 | 1014.4 |
| 20260905214515 | 26 | 147 | 0.0 | 0.0 | 0.00 | 1.30 | 0.03 | 89 | 1014.2 |
| 20260905214325 | 27 | 289 | 0.0 | 0.0 | 0.00 | 1.30 | 0.03 | 89 | 1014.3 |
| 20260905213824 | 27 | 290 | 0.0 | 0.0 | 0.00 | 1.30 | 0.03 | 89 | 1014.2 |
| 20260905213321 | 27 | 290 | 0.0 | 0.0 | 0.00 | 1.30 | 0.03 | 88 | 1014.0 |
| 20260905213011 | 27 | 290 | 0.0 | 8.0 | 0.00 | 1.30 | 0.03 | 87 | 1013.6 |
| 20260905212838 | 27 | 290 | 0.0 | 8.0 | 0.00 | 1.30 | 0.03 | 87 | 1013.8 |